Regional Weather Roundup
Issued by NWS

Home | Current Version | Previous Version | Text Only | Print | Product List | Glossary Off
Versions: 1 2 3 4 5 6 7 8 9 10 11 12 13 14 15 16 17 18 19 20 21 22 23 24 25 26 27 28 29 30 31 32 33 34 35 36 37 38 39 40 41 42 43 44 45 46 47 48 49 50

000
ASUS45 KABQ 180810
RWRNM
WEATHER ROUNDUP FOR NEW MEXICO
NATIONAL WEATHER SERVICE ALBUQUERQUE NM
200 AM MDT FRI APR 18 2014

NOTE: "FAIR" MEANS FEW OR NO CLOUDS BELOW 12,000 FEET AGL WITH NO
       SIGNIFICANT WEATHER OR OBSTRUCTIONS TO VISION.

      THIS PRODUCT IS RELEASED AS TWO VERSIONS.  ONE VERSION NEAR
      THE TOP OF THE HOUR CONTAINING PRELIMINARY DATA FROM ALBUQUERQUE
      AND OTHER STATIONS.  A FINAL VERSION WITH ADDITIONAL DATA IS
      ISSUED ABOUT 10 MINUTES AFTER THE HOUR.

NMZ501-503-504-510>518-180900-
NORTHWEST PLATEAU/NORTHCENTRAL MOUNTAINS

CITY           SKY/WX    TMP DP  RH WIND       PRES   REMARKS
FARMINGTON     CLEAR     43  20  39 NE6       30.10S
LOS ALAMOS     CLEAR     43  26  51 S10       30.23F
SANTA FE       CLEAR     46  26  45 SE9       30.21F
TAOS           PTCLDY    41  23  48 NW6       30.25F
ANGEL FIRE     FAIR      42  24  47 E3        30.25S

$$
NMZ402-403-502-505>509-180900-
WESTCENTRAL MOUNTAINS/SOUTHWEST MOUNTAINS

CITY           SKY/WX    TMP DP  RH WIND       PRES   REMARKS
GALLUP         CLEAR     38  14  37 CALM      30.15R
GRANTS         PTCLDY    44  19  37 S6        30.18S
SILVER CITY    MOCLDY    54  19  26 SE7       30.16S

$$
NMZ407-409-411-412-180900-
SOUTHERN DESERTS

CITY           SKY/WX    TMP DP  RH WIND       PRES   REMARKS
LORDSBURG      FAIR      61  19  20 SE13      30.06S
DEMING         CLOUDY    60  25  26 E8        30.07F
LAS CRUCES     MOCLDY    59  28  30 SE9       30.11S
HOLLOMAN AFB   PTCLDY    50  26  38 N9        30.09F
ALAMOGORDO     PTCLDY    55  27  33 N10       30.10F
T OR C         CLEAR     57  23  26 W6        30.11F

$$
NMZ519>523-180900-
CENTRAL VALLEYS/CENTRAL HIGHLANDS

CITY           SKY/WX    TMP DP  RH WIND       PRES   REMARKS
ALBUQUERQUE    PTCLDY    53  26  35 NW6       30.16S
DOUBLE EAGLE   PTCLDY    44  24  45 NW6       30.19S
MORIARTY ARPT  FAIR      36  24  62 CALM      30.23F
CLINES CORNERS CLEAR     37  26  64 SE8       30.23S WCI  31
BELEN          FAIR      52  26  36 SE10      30.14S
SOCORRO        FAIR      52  23  32 S9        30.13S

$$
NMZ524>526-539-540-180900-
SOUTHCENTRAL MOUNTAINS

CITY           SKY/WX    TMP DP  RH WIND       PRES   REMARKS
RUIDOSO        CLEAR     41  25  52 SE7       30.28S

$$
NMZ527>531-180900-
NORTHEAST HIGHLANDS/NORTHEAST PLAINS

CITY           SKY/WX    TMP DP  RH WIND       PRES   REMARKS
LAS VEGAS      CLEAR     36  27  69 S14       30.23F WCI  27
RATON          CLEAR     34  30  85 W6        30.20F WCI  29
CLAYTON        CLEAR     36  32  85 SW12      30.18F WCI  28

$$
NMZ532>537-180900-
EASTCENTRAL PLAINS

CITY           SKY/WX    TMP DP  RH WIND       PRES   REMARKS
TUCUMCARI      CLEAR     41  34  76 S6        30.20F
CANNON AFB     CLEAR     37  34  91 E6        30.23F WCI  32
CLOVIS AIRPORT CLEAR     36  30  80 S6        30.26F WCI  31

$$
NMZ028-029-538-180900-
SOUTHEAST PLAINS

CITY           SKY/WX    TMP DP  RH WIND       PRES   REMARKS
ROSWELL        CLEAR     49  37  63 S8        30.20F
ARTESIA        CLEAR     50  41  71 SE15      30.21F
CARLSBAD       MOCLDY    52  42  69 E6        30.19F
HOBBS          CLEAR     45  41  87 E9        30.23F


$$



USA.gov is the U.S. government's official web portal to all federal, state and local government web resources and services.